Retour au catalogue

SKYNET 4C

ActifMilitaireGEO
NORAD 20776·PAYLOAD·🇬🇧 United Kingdom

Lancé Aug 30, 1990 depuis Guiana Space Centre

Loading…

TLE

FraisSource: Space-Track

Époque: Sep 14, 2026, 12:59 UTC

1 20776U 90079A   26257.54099081 -.00000217  00000-0  00000-0 0  9996
2 20776  13.3100 349.2466 0002688 164.4003 211.4187  0.98580356   927

Suivez SKYNET 4C en temps réel avec AllMySat

Download on the App Store